Location: Middelsbur
(53.6609°N, 7.5020°E)
Time: 00:23:23
(UTC+00:00)

SAR-Lupe-2 - Pass Details

Date: 06 July 2020
Orbit: 481 x 485 km, 98.1° (Epoch: 01 August)

Event Time Altitude Azimuth Distance (km) Brightness Sun altitude
Rises 21:11:41 0° 14° (NNE) 2,570 8.0 -7.7°
Reaches altitude 10° 21:13:46 10° 12° (NNE) 1,684 7.0 -7.9°
Maximum altitude 21:17:22 76° 288° (WNW) 507 3.8 -8.2°
Drops below altitude 10° 21:20:57 10° 202° (SSW) 1,668 5.9 -8.5°
Enters shadow 21:22:57 - 201° (SSW) 2,522 6.8 -8.6°
